Regional Weather Roundup
Issued by NWS

Home | Current Version | Previous Version | Text Only | Print | Product List | Glossary On
Versions: 1 2 3 4 5 6 7 8 9 10 11 12 13 14 15 16 17 18 19 20 21 22 23 24 25 26 27 28 29 30 31 32 33 34 35 36 37 38 39 40 41 42 43 44 45 46 47 48 49 50
000
ASCA42 TJSJ 011411
RWRPR
PUERTO RICO/U.S. VIRGIN ISLANDS HOURLY WEATHER ROUNDUP
NATIONAL WEATHER SERVICE SAN JUAN PR
1000 AM AST FRI AUG 01 2014

PRZ001-004-011500-
PUERTO RICO

CITY           SKY/WX    TMP DP  RH WIND       PRES   REMARKS
SAN JUAN LMM   PTSUNNY   86  75  70 E13       29.99S HX  95
AGUADILLA      SUNNY     84  73  70 NE8       29.99S HX  91
CEIBA          MOSUNNY   86  75  70 E13       30.02S HX  95
$$

PRZ006-007-011500-
U.S. VIRGIN ISLANDS

CITY           SKY/WX    TMP DP  RH WIND       PRES   REMARKS
CHARLOTTE AMA  PTSUNNY   86  77  74 SE14      30.00R HX  97
CHRISTIANSTED  MOSUNNY   88  73  62 E20       30.00S HX  96
$$

HOURLY WEATHER ROUNDUP FOR THE NEWS MEDIA

CITY           SKY/WX    TMP DP  RH WIND       PRES   REMARKS
MIAMI          PTSUNNY   86  76  71 S5        29.98S HX  96
ORLANDO        SUNNY     84  71  65 W3        30.00S
NEW YORK       PTSUNNY   77  67  71 SW8       30.20S
NEWARK         PTSUNNY   79  69  71 CALM      30.19S
CHICAGO        MOSUNNY   74  56  53 W7        30.08F
HARTFORD       MOSUNNY   77  68  73 SW3       30.22R
BOSTON         MOSUNNY   74  66  76 SE5       30.21S
DALLAS         CLOUDY    70  67  90 NE8       30.05R
PHILADELPHIA   PTSUNNY   78  68  71 SW7       30.18S


USA.gov is the U.S. government's official web portal to all federal, state and local government web resources and services.